User: anonymous   Login
Location: NJAA Observatory
(40.6819°N, 74.8979°W)
Time: 06:19:16
(UTC-04:00)
Language:

Cosmos 1939 Rocket - Orbit

View from above orbital plane
View from above orbital plane
View from above satellite
View from above satellite

Ground track
Ground track

The orbit data is extracted from the following two-line orbital elements,

1 19046U 88032B   14305.12026177  .00001295  00000-0  10761-3 0   367
2 19046 097.6344 357.1809 0037714 357.8638 002.2418 14.99971299428720
Epoch (UTC): 01 November 2014 02:53:10
Eccentricity: 0.0037714
inclination: 97.6344°
perigee height: 541 km
apogee height: 593 km
right ascension of ascending node: 357.1809°
argument of perigee: 357.8638°
revolutions per day: 14.99971299
mean anomaly at epoch: 2.2418°
orbit number at epoch: 42872

The dashed part of the orbit path shows where the satellite is in the earth's shadow,  

DLR